FW8921 Weather Reports


time (UTC)temp
C
wind
direction
speed
KPH
gust
KPH
rain 1hr
cm
rain 24hr
cm
rain mn
cm
humidity
%
barometer
mb
20260507073020 9 290 0.0 4.8 0.05 0.61 0.05 89 1008.3
20260507072509 9 255 0.0 3.2 0.05 0.61 0.05 89 1008.3
20260507072007 10 249 0.0 3.2 0.05 0.61 0.05 89 1008.6
20260507071525 10 263 0.0 1.6 0.05 0.61 0.05 89 1008.4
20260507071006 10 263 0.0 1.6 0.05 0.61 0.05 89 1008.2
20260507070507 10 296 0.0 0.0 0.03 0.58 0.03 89 1008.2
20260507070026 10 314 0.0 8.0 0.03 0.58 0.03 89 1007.7
20260507065510 10 296 0.0 8.0 0.00 0.56 0.00 89 1008.0
20260507065009 10 286 1.6 6.4 0.00 0.56 0.00 89 1007.8
20260507064527 10 306 0.0 6.4 0.00 0.56 0.00 89 1007.5
20260507064009 10 306 0.0 6.4 0.00 0.56 0.00 89 1007.4
20260507063507 10 342 1.6 6.4 0.00 0.56 0.00 89 1007.0
20260507063023 10 318 0.0 0.0 0.00 0.56 0.00 89 1006.9
20260507062507 10 318 0.0 4.8 0.00 0.56 0.00 89 1007.0
20260507062006 10 318 0.0 6.4 0.00 0.56 0.00 89 1007.2
20260507061521 10 318 0.0 6.4 0.00 0.56 0.00 89 1007.2
20260507061007 10 321 0.0 6.4 0.00 0.56 0.00 89 1007.5
20260507060507 10 320 0.0 8.0 0.00 0.56 0.00 89 1007.5
20260507060026 10 321 1.6 8.0 0.00 0.56 0.00 89 1007.5
20260507055507 10 259 0.0 4.8 0.00 0.56 0.00 89 1007.8
20260507055008 10 315 0.0 9.7 0.00 0.56 0.00 89 1007.6
20260507054528 10 315 1.6 9.7 0.00 0.56 0.00 89 1007.6
20260507054008 10 328 4.8 9.7 0.00 0.56 0.00 89 1007.6
20260507053510 10 329 0.0 3.2 0.00 0.56 0.00 89 1007.6
20260507053028 10 336 0.0 4.8 0.00 0.56 0.00 89 1007.7
20260507052510 10 337 1.6 4.8 0.00 0.56 0.00 89 1007.7
20260507052009 10 338 0.0 6.4 0.00 0.56 0.00 89 1007.8
20260507051517 10 337 1.6 6.4 0.00 0.56 0.00 89 1007.9
20260507051013 11 275 0.0 6.4 0.00 0.56 0.00 89 1008.1
20260507050506 11 319 0.0 6.4 0.00 0.56 0.00 89 1008.1
20260507050027 11 319 3.2 6.4 0.00 0.56 0.00 89 1008.2
20260507045511 11 302 1.6 6.4 0.00 0.56 0.00 89 1008.4
20260507045007 11 311 3.2 6.4 0.00 0.56 0.00 89 1008.2
20260507044523 11 300 0.0 4.8 0.00 0.56 0.00 89 1007.9
20260507044011 11 297 0.0 6.4 0.00 0.56 0.00 90 1007.9
20260507043507 11 297 0.0 6.4 0.00 0.56 0.00 89 1007.8
20260507043028 11 268 1.6 4.8 0.00 0.56 0.00 89 1007.9
20260507042510 11 304 0.0 4.8 0.00 0.56 0.00 89 1007.9
20260507042010 11 304 1.6 6.4 0.00 0.56 0.00 89 1007.8
20260507041513 11 305 1.6 6.4 0.00 0.56 0.00 89 1007.9
20260507041006 11 304 0.0 4.8 0.00 0.56 0.00 89 1008.1
20260507040507 11 298 0.0 4.8 0.03 0.56 0.00 89 1008.2
20260507040020 11 288 0.0 1.6 0.03 0.56 0.00 89 1008.1
20260507035505 11 290 0.0 4.8 0.03 0.56 0.56 89 1008.0
20260507035006 11 289 0.0 8.0 0.05 0.56 0.56 89 1007.9
20260507034504 11 324 1.6 9.7 0.08 0.56 0.56 89 1008.3
20260507034002 12 342 1.6 9.7 0.08 0.56 0.56 89 1008.2
20260507033502 12 338 1.6 16.1 0.08 0.56 0.56 89 1008.0
20260507033016 12 293 3.2 16.1 0.08 0.56 0.56 88 1008.1
20260507032501 12 323 3.2 14.5 0.08 0.56 0.56 89 1008.1
20260507032001 12 11 3.2 14.5 0.08 0.56 0.56 89 1008.3
20260507031510 12 329 3.2 16.1 0.08 0.56 0.56 89 1008.3
20260507031005 13 329 4.8 16.1 0.08 0.56 0.56 90 1008.2
20260507030511 13 309 4.8 12.9 0.05 0.53 0.53 91 1008.0
20260507030018 14 333 3.2 12.9 0.05 0.53 0.53 91 1007.8
20260507025506 14 296 1.6 8.0 0.05 0.53 0.53 91 1007.7
20260507025006 14 277 1.6 11.3 0.03 0.51 0.51 91 1007.8
20260507024525 14 207 1.6 11.3 0.00 0.48 0.48 91 1007.4
20260507024005 14 207 1.6 6.4 0.00 0.48 0.48 91 1007.3
20260507023508 14 205 0.0 6.4 0.00 0.48 0.48 91 1007.3
20260507023028 13 171 0.0 9.7 0.00 0.48 0.48 91 1007.4
20260507022505 13 168 3.2 9.7 0.00 0.48 0.48 91 1007.5
20260507022002 13 208 0.0 6.4 0.00 0.48 0.48 91 1007.6
20260507021507 13 214 0.0 4.8 0.00 0.48 0.48 91 1007.3
20260507021002 13 223 0.0 4.8 0.00 0.48 0.48 91 1007.5
20260507020502 13 224 0.0 4.8 0.00 0.48 0.48 91 1007.6
20260507020018 13 223 0.0 4.8 0.00 0.48 0.48 91 1007.6
20260507015503 13 241 0.0 4.8 0.00 0.48 0.48 91 1007.5
20260507015006 13 278 0.0 0.0 0.00 0.48 0.48 91 1007.5
20260507014526 13 278 0.0 3.2 0.00 0.48 0.48 91 1007.6
20260507014006 13 278 0.0 6.4 0.00 0.48 0.48 91 1007.6
20260507013509 13 278 0.0 6.4 0.00 0.48 0.48 91 1007.6
20260507013022 13 192 1.6 9.7 0.00 0.48 0.48 91 1007.4
20260507012509 13 169 3.2 9.7 0.00 0.48 0.48 91 1007.4
20260507012012 13 182 0.0 8.0 0.00 0.48 0.48 91 1007.2
20260507011506 13 182 3.2 8.0 0.00 0.48 0.48 91 1007.4
20260507011005 13 211 0.0 4.8 0.00 0.48 0.48 91 1007.4
20260507010502 13 195 1.6 4.8 0.00 0.48 0.48 91 1007.4
20260507010012 13 194 0.0 4.8 0.00 0.48 0.48 91 1007.3
20260507005503 13 222 0.0 4.8 0.00 0.48 0.48 91 1007.3
20260507005006 13 200 0.0 11.3 0.00 0.48 0.48 91 1007.4
20260507004520 13 200 3.2 11.3 0.00 0.48 0.48 91 1007.4
20260507004010 13 221 1.6 9.7 0.00 0.48 0.48 91 1007.4
20260507003507 13 177 1.6 16.1 0.00 0.48 0.48 91 1007.6
20260507003030 13 144 3.2 16.1 0.00 0.48 0.48 91 1007.6
20260507002506 13 98 1.6 6.4 0.00 0.48 0.48 91 1007.5
20260507002007 13 211 0.0 14.5 0.00 0.48 0.48 91 1007.5
20260507001527 13 207 3.2 14.5 0.00 0.48 0.48 91 1007.4
20260507001012 13 165 3.2 14.5 0.00 0.48 0.48 91 1007.5
20260507000510 13 205 1.6 14.5 0.00 0.48 0.48 91 1007.4
20260507000035 13 297 1.6 12.9 0.00 0.48 0.48 91 1007.4
20260506235503 13 157 3.2 11.3 0.00 0.48 0.48 91 1007.3
20260506235003 13 199 1.6 8.0 0.00 0.48 0.48 90 1007.3
20260506234515 13 228 0.0 8.0 0.03 0.48 0.48 90 1007.2
20260506234006 13 205 1.6 8.0 0.03 0.48 0.48 90 1007.3
20260506233506 13 195 0.0 9.7 0.03 0.48 0.48 90 1007.2
20260506233020 13 195 3.2 11.3 0.05 0.48 0.48 90 1007.2
20260506232506 13 161 1.6 11.3 0.05 0.48 0.48 90 1007.1
20260506232006 13 218 0.0 8.0 0.05 0.48 0.48 90 1007.0
20260506231523 13 181 1.6 8.0 0.08 0.48 0.48 90 1007.0
20260506231008 13 178 0.0 6.4 0.08 0.48 0.48 90 1007.1
20260506230507 13 167 0.0 6.4 0.08 0.48 0.48 90 1007.0
20260506230026 13 177 1.6 6.4 0.08 0.48 0.48 90 1007.1
20260506225513 13 207 0.0 8.0 0.08 0.48 0.48 90 1007.1
20260506225009 13 226 1.6 8.0 0.08 0.48 0.48 90 1007.1
20260506224526 13 181 0.0 6.4 0.05 0.46 0.46 90 1007.0
20260506224004 13 169 0.0 8.0 0.05 0.46 0.46 90 1007.0
20260506223502 13 180 0.0 8.0 0.05 0.46 0.46 89 1007.0
20260506223015 13 194 0.0 6.4 0.03 0.43 0.43 89 1007.0
20260506222506 13 194 0.0 6.4 0.03 0.43 0.43 89 1007.0
20260506222006 13 157 0.0 6.4 0.05 0.43 0.43 89 1007.0
20260506221522 13 208 0.0 6.4 0.03 0.41 0.41 89 1007.0
20260506221014 13 199 0.0 8.0 0.03 0.41 0.41 89 1006.8
20260506220508 13 180 1.6 8.0 0.05 0.41 0.41 89 1007.1
20260506220036 13 209 0.0 8.0 0.05 0.41 0.41 89 1006.9
20260506215511 13 195 1.6 8.0 0.08 0.41 0.41 89 1006.9
20260506215008 13 216 0.0 9.7 0.10 0.41 0.41 89 1006.8
20260506214528 13 204 1.6 9.7 0.13 0.41 0.41 89 1006.8
20260506214009 13 162 0.0 8.0 0.15 0.41 0.41 89 1007.0
20260506213511 13 204 0.0 12.9 0.15 0.41 0.41 89 1007.0
20260506213026 13 171 0.0 12.9 0.15 0.41 0.41 89 1007.1
20260506212505 13 168 0.0 1.6 0.15 0.41 0.41 89 1007.1
20260506212010 13 196 0.0 1.6 0.13 0.38 0.38 89 1007.1
20260506211514 13 243 0.0 9.7 0.13 0.38 0.38 89 1007.1
20260506211006 13 205 0.0 14.5 0.15 0.38 0.38 88 1007.2
20260506210510 13 216 0.0 14.5 0.13 0.36 0.36 88 1007.3
20260506210022 13 190 0.0 11.3 0.13 0.36 0.36 88 1007.4
20260506205505 13 190 3.2 12.9 0.13 0.33 0.33 88 1007.4
20260506205010 13 190 1.6 12.9 0.10 0.30 0.30 87 1007.5
20260506204528 13 188 0.0 11.3 0.08 0.28 0.28 87 1007.6
20260506204009 13 161 3.2 11.3 0.05 0.25 0.25 87 1007.6
20260506203513 13 190 0.0 11.3 0.05 0.25 0.25 87 1007.6
20260506203032 13 211 1.6 8.0 0.05 0.25 0.25 87 1007.6
20260506202510 13 161 1.6 8.0 0.05 0.25 0.25 87 1007.6
20260506202012 13 198 1.6 8.0 0.05 0.25 0.25 87 1007.5
20260506201531 13 182 0.0 11.3 0.05 0.25 0.25 87 1007.6
20260506201009 13 155 3.2 12.9 0.03 0.23 0.23 87 1007.7
20260506200512 13 223 0.0 12.9 0.03 0.23 0.23 86 1007.7
20260506200017 13 200 3.2 11.3 0.05 0.23 0.23 86 1007.8
20260506195506 13 158 3.2 16.1 0.03 0.20 0.20 86 1007.9
20260506195011 13 199 0.0 17.7 0.03 0.20 0.20 86 1008.0
20260506194527 13 145 4.8 17.7 0.05 0.20 0.20 86 1008.0
20260506194009 13 234 1.6 16.1 0.05 0.20 0.20 86 1008.2
20260506193508 13 202 0.0 17.7 0.05 0.20 0.20 86 1008.2
20260506193024 13 202 3.2 17.7 0.05 0.20 0.20 86 1008.2
20260506192511 13 223 3.2 19.3 0.08 0.20 0.20 86 1008.3
20260506192013 13 197 6.4 19.3 0.10 0.20 0.20 86 1008.3
20260506191528 13 142 0.0 12.9 0.10 0.20 0.20 85 1008.1
20260506191010 13 189 6.4 12.9 0.13 0.20 0.20 85 1008.2
20260506190512 13 182 3.2 12.9 0.15 0.20 0.20 85 1008.4
20260506190030 13 175 4.8 12.9 0.13 0.18 0.18 85 1008.5
20260506185509 13 196 1.6 16.1 0.15 0.18 0.18 85 1008.7
20260506185009 13 202 4.8 19.3 0.15 0.18 0.18 85 1008.5
20260506184520 14 225 1.6 19.3 0.15 0.15 0.15 84 1008.3
20260506184010 14 169 0.0 16.1 0.15 0.15 0.15 84 1008.2
20260506183513 14 198 0.0 16.1 0.15 0.15 0.15 84 1008.2
20260506183023 14 190 0.0 16.1 0.15 0.15 0.15 84 1008.3
20260506182509 14 182 1.6 16.1 0.13 0.13 0.13 83 1008.5
20260506182009 15 53 3.2 12.9 0.10 0.10 0.10 83 1008.6
20260506181508 15 196 1.6 14.5 0.10 0.10 0.10 83 1008.7
20260506181008 15 128 1.6 14.5 0.08 0.08 0.08 82 1008.9
20260506180506 15 194 3.2 17.7 0.05 0.05 0.05 81 1009.0
20260506180012 15 182 1.6 19.3 0.05 0.05 0.05 81 1009.1
20260506175504 15 113 3.2 19.3 0.03 0.03 0.03 81 1009.2
20260506175003 16 188 3.2 11.3 0.03 0.03 0.03 80 1009.2
20260506174512 16 182 1.6 14.5 0.00 0.00 0.00 79 1009.3
20260506174003 16 167 1.6 16.1 0.00 0.00 0.00 79 1009.3
20260506173502 16 186 6.4 16.1 0.00 0.00 0.00 78 1009.3
20260506173012 16 201 3.2 19.3 0.00 0.00 0.00 77 1009.4
20260506172503 17 169 1.6 19.3 0.00 0.00 0.00 75 1009.4
20260506172003 17 208 1.6 19.3 0.00 0.00 0.00 74 1009.6
20260506171510 17 172 4.8 19.3 0.00 0.00 0.00 73 1009.5
20260506171003 17 181 6.4 19.3 0.00 0.00 0.00 72 1009.6
20260506170505 17 162 6.4 27.4 0.00 0.00 0.00 71 1009.6
20260506170012 18 263 6.4 27.4 0.00 0.00 0.00 70 1009.5
20260506165503 18 142 6.4 22.5 0.00 0.00 0.00 70 1009.4
20260506165003 18 238 8.0 22.5 0.00 0.00 0.00 70 1009.5
20260506164510 18 180 4.8 20.9 0.00 0.00 0.00 69 1009.2
20260506164003 18 153 9.7 22.5 0.00 0.00 0.00 69 1009.3
20260506163503 18 200 8.0 22.5 0.00 0.00 0.00 69 1009.3
20260506163030 18 157 11.3 20.9 0.00 0.00 0.00 68 1009.3
20260506162504 19 144 6.4 20.9 0.00 0.00 0.00 68 1009.3
20260506162005 19 179 8.0 29.0 0.00 0.00 0.00 67 1009.5
20260506161511 19 178 6.4 29.0 0.00 0.00 0.00 67 1009.5
20260506161004 19 113 11.3 29.0 0.00 0.00 0.00 66 1009.6
20260506160506 19 142 8.0 29.0 0.00 0.00 0.00 67 1009.7
20260506160018 19 157 4.8 24.1 0.00 0.00 0.00 66 1009.7
20260506155503 20 142 8.0 19.3 0.00 0.00 0.00 65 1009.6
20260506155005 20 138 1.6 20.9 0.00 0.00 0.00 66 1009.7
20260506154510 19 187 6.4 20.9 0.00 0.00 0.00 66 1009.6
20260506154008 20 214 3.2 20.9 0.00 0.00 0.00 66 1009.7
20260506153503 20 178 6.4 20.9 0.00 0.00 0.00 66 1009.7
20260506153020 20 159 6.4 19.3 0.00 0.00 0.00 65 1009.7
20260506152506 20 169 6.4 20.9 0.00 0.00 0.00 64 1009.7
20260506152014 20 198 1.6 20.9 0.00 0.00 0.00 65 1009.6
20260506151517 20 162 4.8 20.9 0.00 0.00 0.00 64 1009.8
20260506151004 20 192 3.2 20.9 0.00 0.00 0.00 64 1009.9
20260506150506 20 132 3.2 24.1 0.00 0.00 0.00 66 1009.9
20260506150014 20 186 8.0 25.7 0.00 0.00 0.00 65 1010.0
20260506145508 20 196 4.8 25.7 0.00 0.00 0.00 65 1010.1
20260506145005 20 178 1.6 24.1 0.00 0.00 0.00 66 1010.1
20260506144510 20 180 9.7 27.4 0.00 0.00 0.00 66 1009.9
20260506144004 20 168 11.3 25.7 0.00 0.00 0.00 65 1010.0
20260506143506 20 146 9.7 24.1 0.00 0.00 0.00 66 1010.1
20260506143017 19 175 6.4 24.1 0.00 0.00 0.00 68 1010.2
20260506142508 18 169 8.0 24.1 0.00 0.00 0.00 68 1010.3
20260506142006 18 171 8.0 17.7 0.00 0.00 0.00 69 1010.3
20260506141515 18 171 4.8 17.7 0.00 0.00 0.00 70 1010.3
20260506141004 18 193 0.0 17.7 0.00 0.00 0.00 71 1010.2
20260506140504 18 202 1.6 25.7 0.00 0.00 0.00 71 1010.1
20260506140018 18 194 9.7 25.7 0.00 0.00 0.00 71 1010.2
20260506135504 18 207 9.7 22.5 0.00 0.00 0.00 71 1010.2
20260506135008 18 177 6.4 19.3 0.00 0.00 0.00 70 1010.0
20260506134517 18 271 4.8 19.3 0.00 0.00 0.00 70 1010.0
20260506134003 18 176 6.4 20.9 0.00 0.00 0.00 72 1010.0
20260506133507 18 178 8.0 27.4 0.00 0.00 0.00 72 1010.1
20260506133009 17 186 8.0 27.4 0.00 0.00 0.00 74 1010.1
20260506132508 17 157 3.2 16.1 0.00 0.00 0.00 73 1010.1
20260506132007 17 238 3.2 16.1 0.00 0.00 0.00 74 1010.3
20260506131514 17 224 0.0 25.7 0.00 0.00 0.00 75 1010.4
20260506131007 17 201 3.2 25.7 0.00 0.00 0.00 75 1010.5
20260506130513 17 202 9.7 17.7 0.00 0.00 0.00 75 1010.6
20260506130018 16 179 0.0 19.3 0.00 0.00 0.00 77 1010.7
20260506125504 16 124 9.7 19.3 0.00 0.00 0.00 77 1010.7
20260506125007 16 154 0.0 14.5 0.00 0.00 0.00 78 1010.8
20260506124518 16 180 3.2 19.3 0.00 0.00 0.00 78 1010.8
20260506124005 16 188 0.0 19.3 0.00 0.00 0.00 78 1010.8
20260506123506 16 104 4.8 17.7 0.00 0.00 0.00 78 1010.8
20260506123018 16 181 4.8 17.7 0.00 0.00 0.00 78 1010.9
20260506122502 16 148 0.0 17.7 0.00 0.00 0.00 79 1010.9
20260506122006 16 159 0.0 17.7 0.00 0.00 0.00 79 1011.0
20260506121511 16 172 4.8 19.3 0.00 0.00 0.00 79 1011.0
20260506121006 15 195 3.2 25.7 0.00 0.00 0.00 79 1011.0
20260506120507 15 164 4.8 25.7 0.00 0.00 0.00 79 1011.1
20260506120018 15 187 0.0 17.7 0.00 0.00 0.00 80 1011.0
20260506115509 15 192 0.0 14.5 0.00 0.00 0.00 80 1011.1
20260506115008 15 202 0.0 14.5 0.00 0.00 0.00 80 1010.9
20260506114522 15 123 3.2 19.3 0.00 0.00 0.00 80 1010.9
20260506114007 15 155 8.0 17.7 0.00 0.00 0.00 81 1010.8
20260506113505 15 188 0.0 17.7 0.00 0.00 0.00 81 1010.8
20260506113023 15 157 0.0 8.0 0.00 0.00 0.00 81 1011.0
20260506112506 14 179 0.0 16.1 0.00 0.00 0.00 82 1011.2
20260506112006 14 166 0.0 16.1 0.00 0.00 0.00 82 1011.1
20260506111519 13 254 1.6 16.1 0.00 0.00 0.00 82 1011.2
20260506111004 13 186 0.0 14.5 0.00 0.00 0.00 82 1011.1
20260506110507 13 171 1.6 14.5 0.00 0.00 0.00 82 1011.0
20260506110026 13 180 0.0 12.9 0.00 0.00 0.00 83 1011.1
20260506105506 13 191 0.0 12.9 0.00 0.00 0.00 83 1011.0
20260506105008 13 188 1.6 11.3 0.00 0.00 0.00 83 1011.1
20260506104519 13 208 0.0 12.9 0.00 0.00 0.00 83 1010.9
20260506104008 13 204 0.0 12.9 0.00 0.00 0.00 83 1011.0
20260506103506 13 197 0.0 8.0 0.00 0.00 0.00 83 1011.0
20260506103024 13 199 0.0 11.3 0.00 0.00 0.00 83 1010.9
20260506102507 13 196 1.6 11.3 0.00 0.00 0.00 83 1010.9
20260506102008 13 190 0.0 9.7 0.00 0.00 0.00 83 1011.0
20260506101524 13 209 0.0 11.3 0.00 0.00 0.00 82 1010.9
20260506101006 13 196 0.0 11.3 0.00 0.00 0.00 82 1010.8
20260506100506 13 171 3.2 12.9 0.00 0.00 0.00 82 1010.9
20260506100026 13 202 4.8 12.9 0.00 0.00 0.00 82 1010.9
20260506095508 13 207 1.6 12.9 0.00 0.00 0.00 82 1010.8
20260506095009 13 204 0.0 16.1 0.00 0.00 0.00 82 1010.8
20260506094517 13 181 1.6 16.1 0.00 0.00 0.00 82 1010.9
20260506094008 13 182 3.2 9.7 0.00 0.00 0.00 83 1010.8
20260506093506 13 194 0.0 8.0 0.00 0.00 0.00 83 1010.9
20260506093029 13 187 0.0 8.0 0.00 0.00 0.00 82 1010.9
20260506092509 13 197 0.0 11.3 0.00 0.00 0.00 82 1010.9
20260506092010 13 210 0.0 11.3 0.00 0.00 0.00 82 1010.9
20260506091508 13 192 0.0 8.0 0.00 0.00 0.00 82 1010.8
20260506091003 13 178 0.0 1.6 0.00 0.00 0.00 82 1010.8
20260506090504 13 196 0.0 9.7 0.00 0.00 0.00 82 1010.8
20260506090026 13 197 1.6 9.7 0.00 0.00 0.00 82 1010.9
20260506085503 13 202 3.2 9.7 0.00 0.00 0.00 82 1011.0
20260506085003 13 163 0.0 8.0 0.00 0.00 0.00 82 1011.0
20260506084516 13 201 0.0 9.7 0.00 0.00 0.00 82 1011.0
20260506084005 13 190 0.0 9.7 0.00 0.00 0.00 81 1011.0
20260506083506 13 232 0.0 9.7 0.00 0.00 0.00 81 1011.0
20260506083019 13 200 0.0 9.7 0.00 0.00 0.00 81 1011.0
20260506082507 13 168 0.0 12.9 0.00 0.00 0.00 81 1011.0
20260506082002 13 203 0.0 12.9 0.00 0.00 0.00 81 1011.1
20260506081504 13 198 0.0 11.3 0.00 0.00 0.00 81 1011.1
20260506081003 13 215 0.0 11.3 0.00 0.00 0.00 81 1011.2
20260506080504 13 186 0.0 11.3 0.00 0.00 0.00 81 1011.2
20260506073504 13 209 0.0 6.4 0.00 0.00 0.00 80 1011.2